Flag for U.S.A. Weather past 2 weeks in Glendale, California, U.S.A.

Now
68 °F

Sunny.


Feels Like: 68 °F
Forecast: 56 / 74 °F
Wind: 12 mph from South

Location: Burbank-Glendale-Pasadena Airport


UV Index: 0 (Low)

Visibility: 10 mi


Pressure: 29.75 "Hg

Humidity: 55%

Dew point: 51 °F

Location of GlendaleLocation

Historic Weather in Glendale

°F

Glendale temperature yesterday

Maximum temperature yesterday: 79 °F (at 1:53 PM)
Minimum temperature yesterday: 57 °F (at 5:53 AM)
Average temperature yesterday: 67 °F

Past Weeks' High & Low Weather Summary

 TemperatureHumidityPressure
High91 °F (Apr 9, 2:53 PM)87% (Apr 16, 1:53 AM)30.11 "Hg (Apr 16, 1:53 AM)
Low43 °F (Apr 3, 6:53 AM)5% (Apr 9, 12:53 PM)29.74 "Hg (Apr 16, 4:53 PM)
Average64 °F46%29.95 "Hg
* Reported Apr 1 4:53 PM — Apr 16 4:53 PM, Glendale, Weather by CustomWeather, © 2014

Note: Actual official high and low records may vary slightly from our data, if they occured in-between our weather recording intervals... More about our weather records

Advertising

Historic Weather Conditions — Data for Previous 24 hours

 ConditionsComfort  
Time TempWeatherWind HumidityBarometerVisibility
4:53 PM
Apr 16
70 °FSunny.13 mph49%29.74 "Hg10 mi
3:53 PM72 °FSunny.13 mph48%29.75 "Hg10 mi
2:53 PM73 °FSunny.10 mph46%29.75 "Hg10 mi
1:53 PM72 °FSunny.12 mph46%29.77 "Hg10 mi
12:53 PM71 °FSunny.7 mph44%29.78 "Hg10 mi
11:53 AM69 °FSunny.No wind49%29.80 "Hg10 mi
10:53 AM65 °FSunny.3 mph56%29.83 "Hg8 mi
9:53 AM60 °FSunny.No wind67%29.83 "Hg5 mi
8:53 AM57 °FPartly sunny.No wind78%29.83 "Hg4 mi
7:53 AM55 °FLow clouds.3 mph83%29.84 "Hg3 mi
6:53 AM55 °FLow clouds.5 mph83%29.82 "Hg3 mi
5:53 AM55 °FFog.No wind87%29.80 "Hg5 mi
4:53 AM56 °FLow clouds.5 mph84%29.80 "Hg5 mi
3:53 AM56 °FLow clouds.5 mph84%29.82 "Hg5 mi
2:53 AM56 °FFog.No wind87%29.82 "Hg5 mi
1:53 AM56 °FFog.6 mph87%29.83 "Hg6 mi
12:53 AM57 °FHaze.9 mph83%29.83 "Hg6 mi
11:53 PM
Apr 15
57 °FClear.10 mph83%29.83 "Hg7 mi
10:53 PM58 °FClear.8 mph81%29.83 "Hg8 mi
9:53 PM60 °FClear.8 mph75%29.82 "Hg9 mi
8:53 PM63 °FClear.6 mph68%29.82 "Hg10 mi
7:53 PM70 °FSunny.6 mph47%29.80 "Hg10 mi
6:53 PM75 °FSunny.6 mph34%29.78 "Hg10 mi
Weather by CustomWeather, © 2014

See weather overview